Time,TemperatureF,DewpointF,PressureIn,WindDirection,WindDirectionDegrees,WindSpeedMPH,WindSpeedGustMPH,Humidity,HourlyPrecipIn,Conditions,Clouds,dailyrainin,SoftwareType,DateUTC
2013-08-03 00:02:00,79.0,73.0,30.01,North,0,0.0,0.0,81,0.00,,,0.02,,2013-08-03 04:02:00,
2013-08-03 00:12:00,79.0,73.0,30.01,North,0,0.0,1.0,81,0.00,,,0.02,,2013-08-03 04:12:00,
2013-08-03 00:22:00,79.0,73.0,30.01,North,0,0.0,1.0,81,0.00,,,0.02,,2013-08-03 04:22:00,
2013-08-03 00:32:00,79.0,73.0,30.02,North,0,0.0,0.0,82,0.00,,,0.02,,2013-08-03 04:32:00,
2013-08-03 00:43:00,79.0,73.0,30.02,North,0,0.0,0.0,82,0.00,,,0.02,,2013-08-03 04:43:00,
2013-08-03 00:53:00,79.0,73.0,30.02,North,0,0.0,0.0,82,0.00,,,0.02,,2013-08-03 04:53:00,
2013-08-03 01:02:00,79.0,73.0,30.02,North,0,0.0,5.0,82,0.00,,,0.02,,2013-08-03 05:02:00,
2013-08-03 01:12:00,79.0,73.0,30.02,North,0,0.0,1.0,83,0.00,,,0.02,,2013-08-03 05:12:00,
2013-08-03 01:32:00,79.0,73.0,30.02,North,0,0.0,0.0,83,0.00,,,0.02,,2013-08-03 05:32:00,
2013-08-03 01:42:00,79.0,73.0,30.02,North,0,0.0,1.0,83,0.00,,,0.02,,2013-08-03 05:42:00,
2013-08-03 01:52:00,79.0,73.0,30.01,North,0,0.0,0.0,83,0.00,,,0.02,,2013-08-03 05:52:00,
2013-08-03 02:02:00,79.0,73.0,30.01,North,0,0.0,0.0,83,0.00,,,0.02,,2013-08-03 06:02:00,
2013-08-03 02:12:00,79.0,73.0,30.01,North,0,0.0,0.0,83,0.00,,,0.02,,2013-08-03 06:12:00,
2013-08-03 02:23:00,78.0,72.0,30.01,North,0,0.0,0.0,83,0.00,,,0.02,,2013-08-03 06:23:00,
2013-08-03 02:42:00,78.0,72.0,30.01,North,0,0.0,0.0,83,0.00,,,0.02,,2013-08-03 06:42:00,
2013-08-03 02:52:00,78.0,73.0,30.00,North,0,0.0,2.0,84,0.00,,,0.02,,2013-08-03 06:52:00,
2013-08-03 03:02:00,78.0,73.0,30.00,North,0,0.0,2.0,84,0.00,,,0.02,,2013-08-03 07:02:00,
2013-08-03 03:12:00,78.0,73.0,30.00,North,0,0.0,2.0,84,0.00,,,0.02,,2013-08-03 07:12:00,
2013-08-03 03:22:00,77.0,72.0,30.00,North,0,0.0,0.0,85,0.00,,,0.02,,2013-08-03 07:22:00,
2013-08-03 03:32:00,77.0,72.0,30.00,North,0,0.0,0.0,85,0.00,,,0.02,,2013-08-03 07:32:00,
2013-08-03 03:43:00,77.0,72.0,30.00,North,0,0.0,0.0,85,0.00,,,0.02,,2013-08-03 07:43:00,
2013-08-03 03:53:00,77.0,72.0,30.00,North,0,0.0,0.0,85,0.00,,,0.02,,2013-08-03 07:53:00,
2013-08-03 04:02:00,77.0,72.0,30.00,North,0,0.0,0.0,85,0.00,,,0.02,,2013-08-03 08:02:00,
2013-08-03 04:12:00,77.0,72.0,30.00,North,0,0.0,0.0,85,0.00,,,0.02,,2013-08-03 08:12:00,
2013-08-03 04:22:00,77.0,72.0,30.00,North,0,0.0,0.0,85,0.00,,,0.02,,2013-08-03 08:22:00,
2013-08-03 04:32:00,77.0,72.0,30.00,North,0,0.0,0.0,86,0.00,,,0.02,,2013-08-03 08:32:00,
2013-08-03 04:43:00,77.0,72.0,30.00,North,0,0.0,0.0,86,0.00,,,0.02,,2013-08-03 08:43:00,
2013-08-03 04:52:00,77.0,72.0,30.00,North,0,0.0,0.0,86,0.00,,,0.02,,2013-08-03 08:52:00,
2013-08-03 05:02:00,77.0,72.0,30.00,North,0,0.0,0.0,86,0.00,,,0.02,,2013-08-03 09:02:00,
2013-08-03 05:12:00,76.0,72.0,30.00,North,0,0.0,0.0,86,0.00,,,0.02,,2013-08-03 09:12:00,
2013-08-03 05:22:00,76.0,72.0,30.00,North,0,0.0,0.0,86,0.00,,,0.02,,2013-08-03 09:22:00,
2013-08-03 05:32:00,76.0,72.0,30.01,North,0,0.0,0.0,86,0.00,,,0.02,,2013-08-03 09:32:00,
2013-08-03 05:43:00,76.0,72.0,30.01,North,0,0.0,0.0,86,0.00,,,0.02,,2013-08-03 09:43:00,
2013-08-03 05:53:00,76.0,72.0,30.01,North,0,0.0,0.0,86,0.00,,,0.02,,2013-08-03 09:53:00,
2013-08-03 06:02:00,76.0,72.0,30.01,North,0,0.0,0.0,86,0.00,,,0.02,,2013-08-03 10:02:00,
2013-08-03 06:12:00,76.0,72.0,30.01,North,0,0.0,0.0,86,0.00,,,0.02,,2013-08-03 10:12:00,
2013-08-03 06:22:00,76.0,72.0,30.01,North,0,0.0,0.0,86,0.00,,,0.02,,2013-08-03 10:22:00,
2013-08-03 06:33:00,76.0,72.0,30.02,North,0,0.0,0.0,87,0.00,,,0.02,,2013-08-03 10:33:00,
2013-08-03 06:42:00,76.0,72.0,30.02,North,0,0.0,0.0,87,0.00,,,0.02,,2013-08-03 10:42:00,
2013-08-03 06:53:00,76.0,72.0,30.02,North,0,0.0,0.0,87,0.00,,,0.02,,2013-08-03 10:53:00,
2013-08-03 07:02:00,76.0,72.0,30.02,North,0,0.0,0.0,87,0.00,,,0.02,,2013-08-03 11:02:00,
2013-08-03 07:12:00,76.0,72.0,30.02,North,0,0.0,0.0,87,0.00,,,0.02,,2013-08-03 11:12:00,
2013-08-03 07:22:00,76.0,72.0,30.03,North,0,0.0,0.0,87,0.00,,,0.02,,2013-08-03 11:22:00,
2013-08-03 07:32:00,76.0,72.0,30.03,North,0,0.0,0.0,87,0.00,,,0.02,,2013-08-03 11:32:00,
2013-08-03 07:43:00,76.0,72.0,30.03,North,0,0.0,0.0,88,0.00,,,0.02,,2013-08-03 11:43:00,
2013-08-03 07:53:00,77.0,73.0,30.02,North,0,0.0,0.0,88,0.00,,,0.02,,2013-08-03 11:53:00,
2013-08-03 08:03:00,77.0,73.0,30.02,North,0,0.0,0.0,88,0.00,,,0.02,,2013-08-03 12:03:00,
2013-08-03 08:12:00,77.0,73.0,30.02,North,0,0.0,0.0,88,0.00,,,0.02,,2013-08-03 12:12:00,
2013-08-03 08:22:00,77.0,73.0,30.02,North,0,0.0,0.0,88,0.00,,,0.02,,2013-08-03 12:22:00,
2013-08-03 08:33:00,78.0,74.0,30.03,North,0,0.0,0.0,88,0.00,,,0.02,,2013-08-03 12:33:00,
2013-08-03 08:43:00,78.0,74.0,30.03,North,0,0.0,1.0,88,0.00,,,0.02,,2013-08-03 12:43:00,
2013-08-03 08:52:00,79.0,75.0,30.03,West,265,1.0,1.0,88,0.00,,,0.02,,2013-08-03 12:52:00,
2013-08-03 09:02:00,80.0,75.0,30.03,SW,226,1.0,4.0,86,0.00,,,0.02,,2013-08-03 13:02:00,
2013-08-03 09:12:00,80.0,75.0,30.03,SW,226,1.0,4.0,86,0.00,,,0.02,,2013-08-03 13:12:00,
2013-08-03 09:22:00,81.0,75.0,30.02,West,265,1.0,1.0,82,0.00,,,0.02,,2013-08-03 13:22:00,
2013-08-03 09:33:00,81.0,75.0,30.02,West,265,1.0,1.0,82,0.00,,,0.02,,2013-08-03 13:33:00,
2013-08-03 09:43:00,82.0,74.0,30.02,WSW,251,2.0,5.0,77,0.00,,,0.02,,2013-08-03 13:43:00,
2013-08-03 09:52:00,82.0,74.0,30.02,WSW,251,2.0,5.0,77,0.00,,,0.02,,2013-08-03 13:52:00,
2013-08-03 10:02:00,82.0,74.0,30.02,WSW,251,2.0,5.0,77,0.00,,,0.02,,2013-08-03 14:02:00,
2013-08-03 10:13:00,84.0,74.0,30.02,WSW,250,1.0,8.0,71,0.00,,,0.02,,2013-08-03 14:13:00,
2013-08-03 10:33:00,84.0,73.0,30.02,West,281,1.0,7.0,69,0.00,,,0.02,,2013-08-03 14:33:00,
2013-08-03 10:43:00,84.0,73.0,30.02,West,281,1.0,7.0,69,0.00,,,0.02,,2013-08-03 14:43:00,
2013-08-03 10:52:00,86.0,74.0,30.01,West,266,1.0,5.0,67,0.00,,,0.02,,2013-08-03 14:52:00,
2013-08-03 11:02:00,86.0,74.0,30.01,West,266,1.0,5.0,67,0.00,,,0.02,,2013-08-03 15:02:00,
2013-08-03 11:12:00,86.0,74.0,30.01,North,0,0.0,1.0,67,0.00,,,0.02,,2013-08-03 15:12:00,
2013-08-03 11:23:00,86.0,74.0,30.01,North,0,0.0,1.0,67,0.00,,,0.02,,2013-08-03 15:23:00,
2013-08-03 11:32:00,86.0,73.0,30.01,North,0,0.0,0.0,65,0.00,,,0.02,,2013-08-03 15:32:00,
2013-08-03 11:43:00,87.0,74.0,30.01,North,0,0.0,1.0,65,0.00,,,0.02,,2013-08-03 15:43:00,
2013-08-03 11:53:00,88.0,73.0,30.01,WSW,238,2.0,7.0,62,0.00,,,0.02,,2013-08-03 15:53:00,
2013-08-03 12:02:00,89.0,73.0,30.00,SW,230,1.0,5.0,60,0.00,,,0.02,,2013-08-03 16:02:00,
2013-08-03 12:13:00,90.0,76.0,30.00,West,265,1.0,4.0,64,0.00,,,0.02,,2013-08-03 16:13:00,
2013-08-03 12:23:00,90.0,76.0,30.00,West,265,1.0,4.0,64,0.00,,,0.02,,2013-08-03 16:23:00,
2013-08-03 14:02:00,90.0,77.0,29.98,North,0,0.0,6.0,65,0.00,,,0.01,,2013-08-03 18:02:00,
2013-08-03 14:12:00,90.0,77.0,29.98,North,0,0.0,6.0,65,0.00,,,0.01,,2013-08-03 18:12:00,
2013-08-03 15:43:00,89.0,75.0,29.95,NNW,340,1.0,5.0,64,0.00,,,0.00,,2013-08-03 19:43:00,
2013-08-03 15:52:00,89.0,76.0,29.96,NE,45,1.0,6.0,65,0.00,,,0.00,,2013-08-03 19:52:00,
2013-08-03 16:32:00,89.0,75.0,29.94,WSW,257,1.0,5.0,63,0.00,,,0.00,,2013-08-03 20:32:00,
2013-08-03 16:42:00,89.0,75.0,29.94,WSW,257,1.0,5.0,63,0.00,,,0.00,,2013-08-03 20:42:00,
2013-08-03 16:52:00,89.0,75.0,29.94,WSW,257,1.0,5.0,63,0.00,,,0.00,,2013-08-03 20:52:00,
2013-08-03 17:02:00,89.0,75.0,29.94,SW,233,1.0,7.0,63,0.00,,,0.00,,2013-08-03 21:02:00,
2013-08-03 17:12:00,89.0,75.0,29.94,SW,233,1.0,7.0,63,0.00,,,0.00,,2013-08-03 21:12:00,
2013-08-03 17:22:00,89.0,75.0,29.93,West,270,1.0,7.0,63,0.00,,,0.00,,2013-08-03 21:22:00,
2013-08-03 17:32:00,89.0,75.0,29.93,NW,320,1.0,5.0,64,0.00,,,0.00,,2013-08-03 21:32:00,
2013-08-03 17:42:00,88.0,76.0,29.93,North,0,0.0,5.0,67,0.00,,,0.00,,2013-08-03 21:42:00,
2013-08-03 17:52:00,86.0,75.0,29.93,North,0,0.0,0.0,69,0.00,,,0.00,,2013-08-03 21:52:00,
2013-08-03 18:02:00,86.0,75.0,29.92,North,0,0.0,1.0,70,0.00,,,0.00,,2013-08-03 22:02:00,
2013-08-03 18:12:00,86.0,75.0,29.92,North,0,0.0,1.0,70,0.00,,,0.00,,2013-08-03 22:12:00,
2013-08-03 18:22:00,86.0,75.0,29.92,North,0,0.0,1.0,70,0.00,,,0.00,,2013-08-03 22:22:00,
2013-08-03 18:33:00,86.0,75.0,29.92,North,0,0.0,1.0,70,0.00,,,0.00,,2013-08-03 22:33:00,
2013-08-03 18:43:00,86.0,75.0,29.91,North,0,0.0,1.0,69,0.00,,,0.00,,2013-08-03 22:43:00,
2013-08-03 18:52:00,86.0,75.0,29.91,North,0,0.0,1.0,69,0.00,,,0.00,,2013-08-03 22:52:00,
2013-08-03 19:02:00,86.0,75.0,29.92,North,0,0.0,7.0,69,0.00,,,0.00,,2013-08-03 23:02:00,
2013-08-03 19:12:00,86.0,75.0,29.92,North,0,0.0,7.0,69,0.00,,,0.00,,2013-08-03 23:12:00,
2013-08-03 19:22:00,85.0,75.0,29.91,North,0,0.0,1.0,71,0.00,,,0.00,,2013-08-03 23:22:00,
2013-08-03 19:32:00,85.0,75.0,29.91,North,0,0.0,1.0,71,0.00,,,0.00,,2013-08-03 23:32:00,
2013-08-03 19:43:00,84.0,74.0,29.91,North,0,0.0,4.0,72,0.00,,,0.00,,2013-08-03 23:43:00,
2013-08-03 19:52:00,83.0,73.0,29.91,North,0,0.0,5.0,73,0.00,,,0.00,,2013-08-03 23:52:00,
2013-08-03 20:03:00,83.0,74.0,29.91,North,0,0.0,0.0,74,0.00,,,0.00,,2013-08-04 00:03:00,
2013-08-03 20:12:00,82.0,73.0,29.90,North,0,0.0,2.0,75,0.00,,,0.00,,2013-08-04 00:12:00,
2013-08-03 20:22:00,82.0,74.0,29.90,North,0,0.0,0.0,76,0.00,,,0.00,,2013-08-04 00:22:00,
2013-08-03 20:32:00,82.0,74.0,29.91,North,0,0.0,0.0,76,0.00,,,0.00,,2013-08-04 00:32:00,
2013-08-03 20:42:00,82.0,74.0,29.91,North,0,0.0,0.0,77,0.00,,,0.00,,2013-08-04 00:42:00,
2013-08-03 20:52:00,82.0,74.0,29.91,North,0,0.0,0.0,77,0.00,,,0.00,,2013-08-04 00:52:00,
2013-08-03 21:02:00,82.0,74.0,29.91,North,0,0.0,0.0,77,0.00,,,0.00,,2013-08-04 01:02:00,
2013-08-03 21:12:00,81.0,73.0,29.91,North,0,0.0,0.0,78,0.00,,,0.00,,2013-08-04 01:12:00,
2013-08-03 21:22:00,81.0,73.0,29.91,North,0,0.0,0.0,78,0.00,,,0.00,,2013-08-04 01:22:00,
2013-08-03 21:32:00,80.0,73.0,29.91,North,0,0.0,0.0,79,0.00,,,0.00,,2013-08-04 01:32:00,
2013-08-03 21:42:00,80.0,73.0,29.91,North,0,0.0,0.0,79,0.00,,,0.00,,2013-08-04 01:42:00,
2013-08-03 21:52:00,80.0,73.0,29.91,North,0,0.0,0.0,79,0.00,,,0.00,,2013-08-04 01:52:00,
2013-08-03 22:03:00,80.0,73.0,29.91,North,0,0.0,0.0,79,0.00,,,0.00,,2013-08-04 02:03:00,
2013-08-03 22:12:00,79.0,73.0,29.94,North,0,0.0,0.0,81,0.00,,,0.00,,2013-08-04 02:12:00,
2013-08-03 22:22:00,79.0,73.0,29.94,North,0,0.0,0.0,81,0.00,,,0.00,,2013-08-04 02:22:00,
2013-08-03 22:32:00,79.0,73.0,29.94,North,0,0.0,0.0,81,0.00,,,0.00,,2013-08-04 02:32:00,
2013-08-03 22:42:00,79.0,73.0,29.94,North,0,0.0,0.0,82,0.00,,,0.00,,2013-08-04 02:42:00,
2013-08-03 22:52:00,79.0,73.0,29.94,North,0,0.0,0.0,82,0.00,,,0.00,,2013-08-04 02:52:00,
2013-08-03 23:02:00,79.0,73.0,29.94,North,0,0.0,0.0,82,0.00,,,0.00,,2013-08-04 03:02:00,
2013-08-03 23:12:00,79.0,73.0,29.94,North,0,0.0,0.0,82,0.00,,,0.00,,2013-08-04 03:12:00,
2013-08-03 23:22:00,78.0,72.0,29.94,North,0,0.0,0.0,83,0.00,,,0.00,,2013-08-04 03:22:00,
2013-08-03 23:32:00,78.0,72.0,29.94,North,0,0.0,0.0,83,0.00,,,0.00,,2013-08-04 03:32:00,
2013-08-03 23:42:00,78.0,72.0,29.94,North,0,0.0,0.0,83,0.00,,,0.00,,2013-08-04 03:42:00,
2013-08-03 23:52:00,78.0,72.0,29.94,North,0,0.0,0.0,83,0.00,,,0.00,,2013-08-04 03:52:00,